• In Hungary
  • List of Countries
  • For 7 days
  • Water Temperature
  • Satellite Maps
  • Weather Map
  • News
  • Weather Widgets
  • user-avatar
    Login

    Hourly Weather Predjama

    Today, 26 May, Saturday

    Time Temperature Precipitation Wind Pressure Humidity
    00:00 +13°C° 0 mm 1 mps 698 mmHg 94%
    01:00 +13°C° 0 mm 2 mps 698 mmHg 94%
    02:00 +13°C° 0 mm 2 mps 698 mmHg 94%
    03:00 +13°C° 0 mm 2 mps 698 mmHg 94%
    04:00 +13°C° 0 mm 2 mps 698 mmHg 95%
    05:00 +14°C° 0 mm 2 mps 699 mmHg 92%
    06:00 +15°C° 0 mm 1 mps 699 mmHg 90%
    07:00 +16°C° 0 mm 2 mps 699 mmHg 86%
    08:00 +19°C° 0 mm 1 mps 700 mmHg 77%
    09:00 +21°C° 0 mm 1 mps 700 mmHg 68%
    10:00 +23°C° 0 mm 1 mps 700 mmHg 60%
    11:00 +24°C° 0 mm 1 mps 701 mmHg 56%
    12:00 +25°C° 0 mm 1 mps 701 mmHg 52%
    13:00 +26°C° 0 mm 1 mps 701 mmHg 48%
    14:00 +26°C° 0.1 mm 1 mps 700 mmHg 51%
    15:00 +25°C° 0.1 mm 2 mps 700 mmHg 53%
    16:00 +25°C° 0.1 mm 2 mps 700 mmHg 56%
    17:00 +23°C° 0.1 mm 1 mps 700 mmHg 64%
    18:00 +21°C° 0.1 mm 1 mps 699 mmHg 72%
    19:00 +20°C° 0.1 mm 1 mps 699 mmHg 80%
    20:00 +19°C° 0.1 mm 1 mps 699 mmHg 83%
    21:00 +18°C° 0.1 mm 1 mps 700 mmHg 85%
    22:00 +16°C° 0.1 mm 1 mps 700 mmHg 88%
    23:00 +15°C° 0 mm 1 mps 700 mmHg 89%

    Tomorrow, 27 May, Sunday

    Time Temperature Precipitation Wind Pressure Humidity
    00:00 +15°C° 0 mm 1 mps 699 mmHg 90%
    01:00 +14°C° 0 mm 1 mps 699 mmHg 91%
    02:00 +14°C° 0 mm 1 mps 699 mmHg 92%
    03:00 +14°C° 0 mm 1 mps 699 mmHg 92%
    04:00 +14°C° 0 mm 1 mps 699 mmHg 92%
    05:00 +15°C° 0 mm 1 mps 699 mmHg 88%
    06:00 +18°C° 0 mm 1 mps 699 mmHg 84%
    07:00 +19°C° 0 mm 1 mps 699 mmHg 80%
    08:00 +21°C° 0 mm 1 mps 700 mmHg 71%
    09:00 +23°C° 0 mm 1 mps 700 mmHg 63%
    10:00 +25°C° 0 mm 1 mps 700 mmHg 54%
    11:00 +25°C° 0.2 mm 1 mps 700 mmHg 53%
    12:00 +26°C° 0.2 mm 1 mps 700 mmHg 51%
    13:00 +27°C° 0.2 mm 2 mps 700 mmHg 50%
    14:00 +26°C° 0.6 mm 1 mps 700 mmHg 52%
    15:00 +26°C° 0.6 mm 1 mps 699 mmHg 55%
    16:00 +25°C° 0.6 mm 1 mps 699 mmHg 57%
    17:00 +24°C° 0.5 mm 1 mps 699 mmHg 65%
    18:00 +22°C° 0.5 mm 1 mps 699 mmHg 72%
    19:00 +19°C° 0.5 mm 0 mps 698 mmHg 80%
    20:00 +19°C° 1.3 mm 1 mps 698 mmHg 83%
    21:00 +18°C° 1.3 mm 1 mps 699 mmHg 86%
    22:00 +16°C° 1.3 mm 1 mps 699 mmHg 90%
    23:00 +16°C° 0.2 mm 1 mps 699 mmHg 90%

    Day after tomorrow, 28 May, Monday

    Time Temperature Precipitation Wind Pressure Humidity
    00:00 +15°C° 0.2 mm 1 mps 699 mmHg 91%
    01:00 +15°C° 0.2 mm 1 mps 699 mmHg 91%
    02:00 +15°C° 0 mm 1 mps 698 mmHg 91%
    03:00 +15°C° 0 mm 1 mps 698 mmHg 92%
    04:00 +14°C° 0 mm 1 mps 698 mmHg 92%
    05:00 +16°C° 0 mm 1 mps 698 mmHg 89%
    06:00 +18°C° 0 mm 1 mps 699 mmHg 86%
    07:00 +20°C° 0 mm 1 mps 699 mmHg 82%
    08:00 +21°C° 0 mm 1 mps 699 mmHg 74%
    09:00 +23°C° 0 mm 1 mps 700 mmHg 66%
    10:00 +25°C° 0 mm 1 mps 700 mmHg 57%
    11:00 +26°C° 0.4 mm 1 mps 700 mmHg 57%
    12:00 +26°C° 0.4 mm 1 mps 700 mmHg 56%
    13:00 +27°C° 0.4 mm 1 mps 700 mmHg 55%
    14:00 +26°C° 0.3 mm 1 mps 700 mmHg 57%
    15:00 +26°C° 0.3 mm 1 mps 699 mmHg 59%
    16:00 +26°C° 0.3 mm 2 mps 699 mmHg 61%
    17:00 +24°C° 0.4 mm 1 mps 699 mmHg 68%
    18:00 +22°C° 0.4 mm 1 mps 699 mmHg 75%
    19:00 +19°C° 0.4 mm 0 mps 698 mmHg 82%
    20:00 +18°C° 0.1 mm 0 mps 698 mmHg 84%
    21:00 +19°C° 0.1 mm 1 mps 698 mmHg 86%
    22:00 +18°C° 0.1 mm 1 mps 698 mmHg 88%
    23:00 +16°C° 0.2 mm 1 mps 698 mmHg 89%

    29 May, Tuesday

    Time Temperature Precipitation Wind Pressure Humidity
    00:00 +16°C° 0.2 mm 1 mps 698 mmHg 90%
    01:00 +16°C° 0.2 mm 1 mps 698 mmHg 91%
    02:00 +16°C° 0.1 mm 1 mps 698 mmHg 91%
    03:00 +15°C° 0.1 mm 1 mps 698 mmHg 92%
    04:00 +15°C° 0.1 mm 1 mps 698 mmHg 92%
    05:00 +18°C° 0.1 mm 1 mps 698 mmHg 89%
    06:00 +19°C° 0.1 mm 1 mps 698 mmHg 86%
    07:00 +20°C° 0.1 mm 1 mps 698 mmHg 83%
    08:00 +22°C° 0.5 mm 1 mps 698 mmHg 78%
    09:00 +23°C° 0.5 mm 1 mps 698 mmHg 72%
    10:00 +24°C° 0.5 mm 1 mps 698 mmHg 66%
    11:00 +25°C° 0.6 mm 1 mps 698 mmHg 62%
    12:00 +26°C° 0.6 mm 1 mps 698 mmHg 58%
    13:00 +27°C° 0.6 mm 1 mps 698 mmHg 53%
    14:00 +26°C° 0.8 mm 1 mps 697 mmHg 57%
    15:00 +26°C° 0.8 mm 1 mps 697 mmHg 61%
    16:00 +25°C° 0.8 mm 1 mps 697 mmHg 65%
    17:00 +24°C° 1.1 mm 1 mps 696 mmHg 71%
    18:00 +22°C° 1.1 mm 1 mps 696 mmHg 78%
    19:00 +18°C° 1.1 mm 0 mps 696 mmHg 85%
    20:00 +17°C° 0.2 mm 0 mps 696 mmHg 87%
    21:00 +16°C° 0.2 mm 0 mps 696 mmHg 88%
    22:00 +16°C° 0.2 mm 1 mps 696 mmHg 90%
    23:00 +16°C° 0 mm 1 mps 696 mmHg 90%

    30 May, Wednesday

    Time Temperature Precipitation Wind Pressure Humidity
    00:00 +14°C° 0 mm 0 mps 695 mmHg 91%
    01:00 +14°C° 0 mm 0 mps 695 mmHg 91%
    02:00 +14°C° 0 mm 1 mps 695 mmHg 91%
    03:00 +14°C° 0 mm 1 mps 695 mmHg 91%
    04:00 +14°C° 0 mm 1 mps 695 mmHg 91%
    05:00 +16°C° 0 mm 1 mps 695 mmHg 87%
    06:00 +16°C° 0 mm 0 mps 695 mmHg 83%
    07:00 +18°C° 0 mm 0 mps 696 mmHg 80%
    08:00 +22°C° 0 mm 1 mps 696 mmHg 70%
    09:00 +24°C° 0 mm 1 mps 696 mmHg 61%
    10:00 +26°C° 0 mm 1 mps 697 mmHg 51%
    11:00 +26°C° 0 mm 2 mps 696 mmHg 50%
    12:00 +27°C° 0 mm 2 mps 696 mmHg 49%
    13:00 +27°C° 0 mm 3 mps 696 mmHg 49%
    14:00 +26°C° 0.2 mm 3 mps 696 mmHg 50%
    15:00 +26°C° 0.2 mm 3 mps 695 mmHg 52%
    16:00 +26°C° 0.2 mm 2 mps 695 mmHg 54%
    17:00 +24°C° 0.1 mm 2 mps 695 mmHg 62%
    18:00 +22°C° 0.1 mm 1 mps 695 mmHg 70%
    19:00 +21°C° 0.1 mm 1 mps 694 mmHg 78%
    20:00 +19°C° 0 mm 1 mps 694 mmHg 81%
    21:00 +18°C° 0 mm 1 mps 694 mmHg 84%
    22:00 +15°C° 0 mm 1 mps 694 mmHg 87%
    23:00 +15°C° 0 mm 1 mps 694 mmHg 86%

    31 May, Thursday

    Time Temperature Precipitation Wind Pressure Humidity
    00:00 +15°C° 0 mm 1 mps 694 mmHg 86%
    01:00 +14°C° 0 mm 1 mps 694 mmHg 86%
    02:00 +14°C° 0 mm 1 mps 694 mmHg 85%
    03:00 +14°C° 0 mm 1 mps 694 mmHg 84%
    04:00 +14°C° 0 mm 1 mps 694 mmHg 84%
    05:00 +16°C° 0 mm 1 mps 694 mmHg 79%
    06:00 +18°C° 0 mm 1 mps 695 mmHg 75%
    07:00 +20°C° 0 mm 1 mps 695 mmHg 71%
    08:00 +22°C° 0 mm 1 mps 695 mmHg 66%
    09:00 +23°C° 0 mm 1 mps 696 mmHg 61%
    10:00 +25°C° 0 mm 2 mps 696 mmHg 56%
    11:00 +25°C° 0.1 mm 2 mps 696 mmHg 55%
    12:00 +26°C° 0.1 mm 3 mps 696 mmHg 54%
    13:00 +26°C° 0.1 mm 3 mps 696 mmHg 53%
    14:00 +26°C° 0.1 mm 3 mps 696 mmHg 55%
    15:00 +25°C° 0.1 mm 3 mps 695 mmHg 57%
    16:00 +25°C° 0.1 mm 3 mps 695 mmHg 58%
    17:00 +23°C° 0.1 mm 2 mps 695 mmHg 66%
    18:00 +21°C° 0.1 mm 2 mps 695 mmHg 74%
    19:00 +20°C° 0.1 mm 1 mps 695 mmHg 82%
    20:00 +19°C° 0.1 mm 1 mps 695 mmHg 85%
    21:00 +18°C° 0.1 mm 1 mps 695 mmHg 88%
    22:00 +16°C° 0.1 mm 1 mps 695 mmHg 91%
    23:00 +16°C° 0.1 mm 1 mps 695 mmHg 92%
    Show more